DW1902 Weather Reports


time (UTC)temp
F
wind
direction
speed
knots
gust
knots
rain 1hr
in
rain 24hr
in
rain mn
in
humidity
%
barometer
mb
20190420071705 56 209 5.2 13.0 0.00 0.27 0.00 100 1015.3
20190420071206 56 194 5.2 13.9 0.00 0.28 0.00 100 1015.2
20190420070706 56 165 5.2 13.9 0.00 0.28 0.00 100 1015.2
20190420070205 56 186 3.5 13.9 0.00 0.28 0.00 99 1015.2
20190420065704 56 206 2.6 13.0 0.00 0.28 0.00 99 1015.2
20190420065205 57 213 3.5 13.0 0.00 0.29 0.00 99 1015.1
20190420064707 57 192 4.3 13.0 0.00 0.29 0.00 99 1015.2
20190420064205 57 200 5.2 13.9 0.00 0.29 0.00 99 1015.2
20190420063705 57 178 5.2 13.9 0.00 0.29 0.00 99 1015.2
20190420063205 57 219 4.3 13.9 0.00 0.30 0.00 99 1015.1
20190420062705 57 195 4.3 12.2 0.00 0.31 0.00 99 1015.1
20190420062205 56 155 4.3 13.0 0.00 0.31 0.00 99 1015.3
20190420061705 57 66 4.3 13.0 0.00 0.32 0.00 99 1015.2
20190420061205 56 215 5.2 13.0 0.00 0.33 0.00 99 1015.2
20190420060705 56 212 4.3 11.3 0.00 0.34 0.00 99 1015.3
20190420060205 56 200 3.5 11.3 0.00 0.34 0.00 99 1015.2
20190420055705 56 183 4.3 11.3 0.00 0.35 0.00 99 1015.1
20190420055205 56 203 4.3 13.0 0.00 0.35 0.00 99 1015.0
20190420054705 56 202 4.3 13.0 0.00 0.35 0.00 99 1015.0
20190420054205 56 167 3.5 13.0 0.00 0.36 0.00 98 1015.0
20190420053705 56 196 3.5 12.2 0.00 0.36 0.00 98 1015.0
20190420053205 56 229 4.3 11.3 0.00 0.36 0.00 98 1015.0
20190420052705 56 182 4.3 12.2 0.00 0.36 0.00 99 1015.1
20190420052206 56 182 4.3 12.2 0.00 0.37 0.00 99 1014.9
20190420051705 56 203 5.2 13.9 0.00 0.37 0.00 99 1015.1
20190420051205 56 216 5.2 13.9 0.00 0.37 0.00 99 1015.0
20190420050705 56 212 4.3 13.0 0.00 0.37 0.00 99 1015.1
20190420050205 56 204 5.2 13.9 0.00 0.38 0.00 99 1015.1
20190420045704 56 227 5.2 13.9 0.00 0.39 0.00 99 1015.2
20190420045205 56 200 5.2 13.9 0.00 0.39 0.00 99 1015.1
20190420044705 56 217 5.2 13.9 0.00 0.39 0.00 99 1015.2
20190420044205 56 191 5.2 13.9 0.00 0.39 0.00 99 1015.2
20190420043705 56 209 5.2 12.2 0.00 0.39 0.00 99 1015.1
20190420043205 56 211 5.2 12.2 0.00 0.39 0.00 98 1015.1
20190420042705 56 181 5.2 12.2 0.00 0.39 0.00 98 1015.0
20190420042205 56 171 5.2 12.2 0.00 0.39 0.00 98 1014.9
20190420041705 56 216 6.1 13.9 0.00 0.39 0.00 98 1015.0
20190420041205 56 221 6.1 18.2 0.00 0.39 0.00 98 1015.0
20190420040705 55 216 6.1 18.2 0.00 0.39 0.00 98 1015.0
20190420040205 55 205 6.1 18.2 0.00 0.39 0.00 98 1014.9
20190420035705 55 202 5.2 14.8 0.00 0.39 0.00 98 1014.9
20190420035205 55 186 5.2 14.8 0.00 0.39 0.00 98 1014.9
20190420034705 55 196 5.2 13.9 0.00 0.39 0.00 98 1014.9
20190420034205 55 181 4.3 10.4 0.00 0.39 0.00 98 1015.0
20190420033705 55 229 3.5 13.9 0.00 0.39 0.00 98 1014.9
20190420033205 55 213 5.2 13.9 0.00 0.39 0.00 98 1014.8
20190420032705 55 216 5.2 13.9 0.00 0.39 0.00 98 1014.8
20190420032205 55 179 5.2 13.9 0.00 0.39 0.00 98 1014.9
20190420031705 55 221 5.2 13.9 0.00 0.39 0.00 98 1014.9
20190420031205 55 204 5.2 13.9 0.00 0.39 0.00 98 1014.9
20190420030705 55 217 6.1 13.9 0.00 0.39 0.00 99 1014.8
20190420030207 54 188 5.2 15.6 0.00 0.39 0.39 98 1014.8
20190420025705 54 228 5.2 15.6 0.00 0.39 0.39 98 1014.8
20190420025205 54 228 5.2 15.6 0.00 0.39 0.39 98 1014.8
20190420024705 54 162 5.2 12.2 0.00 0.39 0.39 98 1014.8
20190420024205 54 206 5.2 13.9 0.00 0.39 0.39 98 1014.9
20190420023705 54 135 4.3 13.9 0.00 0.39 0.39 98 1014.9
20190420023205 54 213 4.3 13.9 0.00 0.39 0.39 98 1014.8
20190420022704 54 171 4.3 13.9 0.00 0.39 0.39 98 1014.7
20190420022205 54 151 4.3 11.3 0.00 0.39 0.39 98 1014.6
20190420021705 54 178 4.3 11.3 0.00 0.39 0.39 98 1014.6
20190420021205 54 167 4.3 12.2 0.00 0.39 0.39 98 1014.7
20190420020706 54 193 3.5 12.2 0.00 0.39 0.39 98 1014.7
20190420020206 54 205 3.5 12.2 0.00 0.39 0.39 98 1014.8
20190420015705 54 127 3.5 10.4 0.00 0.39 0.39 98 1014.8
20190420015205 54 205 2.6 9.6 0.00 0.39 0.39 98 1015.0
20190420014705 54 213 3.5 9.6 0.00 0.39 0.39 98 1014.9
20190420014205 54 180 4.3 9.6 0.00 0.39 0.39 98 1014.8
20190420013705 54 178 3.5 12.2 0.00 0.39 0.39 98 1015.0
20190420013205 54 206 4.3 12.2 0.00 0.39 0.39 98 1015.0
20190420012705 54 192 3.5 12.2 0.00 0.39 0.39 98 1015.0
20190420012205 54 210 3.5 9.6 0.00 0.39 0.39 98 1015.0
20190420011704 54 170 3.5 9.6 0.00 0.39 0.39 98 1014.9
20190420011205 54 192 4.3 10.4 0.00 0.39 0.39 98 1014.8
20190420010705 54 234 3.5 10.4 0.00 0.39 0.39 97 1014.9
20190420010205 54 178 3.5 13.0 0.00 0.39 0.39 97 1015.0
20190420005705 54 212 3.5 13.0 0.00 0.39 0.39 97 1015.0
20190420005205 54 179 4.3 13.0 0.00 0.39 0.39 97 1014.9
20190420004705 54 184 3.5 10.4 0.00 0.39 0.39 97 1014.9
20190420004205 54 163 3.5 10.4 0.00 0.39 0.39 97 1014.8
20190420003705 54 202 3.5 10.4 0.00 0.39 0.39 97 1014.8
20190420003205 54 203 4.3 18.2 0.00 0.39 0.39 97 1014.9
20190420002705 54 187 4.3 18.2 0.00 0.39 0.39 97 1014.9
20190420002205 54 214 3.5 18.2 0.00 0.39 0.39 96 1014.8
20190420001705 54 196 3.5 10.4 0.00 0.39 0.39 96 1014.7
20190420001205 55 186 3.5 9.6 0.00 0.39 0.39 96 1014.5
20190420000710 55 225 3.5 9.6 0.00 0.39 0.39 96 1014.5
20190420000205 55 202 3.5 10.4 0.00 0.39 0.39 96 1014.3
20190419235705 55 182 3.5 10.4 0.00 0.39 0.39 96 1014.3
20190419235205 55 217 3.5 10.4 0.00 0.39 0.39 95 1014.4
20190419234705 55 189 3.5 9.6 0.00 0.39 0.39 95 1014.3
20190419234205 55 216 3.5 14.8 0.00 0.39 0.39 95 1014.2
20190419233705 56 173 3.5 14.8 0.00 0.39 0.39 95 1014.2
20190419233205 56 202 4.3 14.8 0.00 0.39 0.39 95 1014.3
20190419232705 56 218 4.3 13.9 0.00 0.39 0.39 95 1014.1
20190419232205 56 221 4.3 13.9 0.00 0.39 0.39 95 1014.0
20190419231705 56 198 4.3 13.9 0.00 0.39 0.39 95 1014.0
20190419231205 56 184 5.2 13.9 0.00 0.39 0.39 94 1014.0
20190419230705 56 178 5.2 14.8 0.00 0.39 0.39 94 1013.9
20190419230206 56 174 5.2 14.8 0.00 0.39 0.39 94 1013.9
20190419225705 56 205 4.3 14.8 0.00 0.39 0.39 94 1013.8
20190419225205 56 240 4.3 13.9 0.00 0.39 0.39 94 1013.7
20190419224705 56 216 5.2 13.9 0.00 0.39 0.39 93 1013.6
20190419224205 56 222 4.3 13.9 0.00 0.39 0.39 93 1013.6
20190419223705 56 202 4.3 12.2 0.00 0.39 0.39 93 1013.5
20190419223205 56 159 5.2 13.9 0.00 0.39 0.39 92 1013.4
20190419222705 57 190 4.3 14.8 0.00 0.39 0.39 92 1013.3
20190419222205 57 187 5.2 14.8 0.00 0.39 0.39 92 1013.3
20190419221705 57 205 5.2 14.8 0.00 0.39 0.39 91 1013.2
20190419221205 57 182 4.3 13.0 0.00 0.39 0.39 91 1013.3
20190419220705 58 219 4.3 13.0 0.00 0.39 0.39 91 1013.2
20190419220205 58 205 5.2 13.9 0.00 0.39 0.39 90 1013.2
20190419215704 58 180 5.2 13.9 0.00 0.39 0.39 89 1013.0
20190419215205 59 239 5.2 13.9 0.00 0.39 0.39 88 1013.0
20190419214705 60 213 5.2 13.0 0.00 0.39 0.39 88 1012.8
20190419214205 60 187 5.2 14.8 0.00 0.39 0.39 88 1012.9
20190419213705 60 226 5.2 14.8 0.00 0.39 0.39 88 1013.0
20190419213205 60 183 5.2 13.9 0.00 0.39 0.39 88 1012.9
20190419212704 60 214 4.3 13.9 0.00 0.39 0.39 87 1012.9
20190419212205 60 230 5.2 15.6 0.00 0.39 0.39 87 1012.9
20190419211705 61 198 5.2 19.1 0.00 0.39 0.39 87 1012.8
20190419211205 61 183 6.1 19.1 0.00 0.39 0.39 86 1012.7
20190419210705 61 213 5.2 21.7 0.00 0.39 0.39 86 1012.7
20190419210205 62 165 6.1 21.7 0.00 0.39 0.39 86 1012.8
20190419205705 62 191 7.0 21.7 0.00 0.39 0.39 86 1012.8
20190419205205 62 234 7.8 19.1 0.00 0.39 0.39 86 1012.7
20190419204705 62 207 8.7 18.2 0.00 0.39 0.39 86 1012.8
20190419204205 62 217 8.7 18.2 0.00 0.39 0.39 86 1012.7
20190419203705 62 209 7.0 18.2 0.00 0.39 0.39 85 1012.8
20190419203205 63 222 7.0 17.4 0.00 0.39 0.39 84 1012.8
20190419202705 63 213 6.1 15.6 0.00 0.39 0.39 84 1012.7
20190419202226 63 160 6.1 17.4 0.00 0.39 0.39 84 1012.7
20190419201705 63 188 7.0 17.4 0.00 0.39 0.39 84 1012.6
20190419201205 63 277 6.1 17.4 0.00 0.39 0.39 84 1012.7
20190419200705 63 215 6.1 15.6 0.00 0.39 0.39 83 1012.8
20190419200205 63 253 6.1 16.5 0.00 0.39 0.39 83 1012.8
20190419195705 64 205 5.2 20.0 0.00 0.39 0.39 83 1012.7
20190419195205 64 213 7.0 22.6 0.00 0.39 0.39 84 1012.8
20190419194705 64 215 8.7 22.6 0.00 0.39 0.39 84 1012.8
20190419194205 64 236 8.7 22.6 0.00 0.39 0.39 83 1012.9
20190419193705 64 200 8.7 20.9 0.00 0.39 0.39 83 1012.8
20190419193205 65 253 8.7 20.9 0.00 0.39 0.39 83 1012.7
20190419192705 64 214 9.6 20.9 0.00 0.39 0.39 83 1012.8
20190419192205 64 200 7.8 18.2 0.00 0.39 0.39 83 1012.8
20190419191706 64 212 8.7 18.2 0.00 0.39 0.39 83 1012.8
20190419191205 64 213 9.6 22.6 0.00 0.39 0.39 84 1012.8
20190419190705 63 221 9.6 22.6 0.00 0.39 0.39 84 1012.8
20190419190205 64 221 9.6 18.2 0.00 0.39 0.39 85 1012.7
20190419185705 63 221 7.8 20.9 0.00 0.39 0.39 85 1012.7
20190419185205 63 151 7.8 20.9 0.00 0.39 0.39 86 1012.7
20190419184705 63 207 8.7 23.5 0.00 0.39 0.39 86 1012.7
20190419184205 63 214 7.8 23.5 0.00 0.39 0.39 86 1012.7
20190419183705 62 233 7.8 17.4 0.00 0.39 0.39 87 1012.8
20190419183205 62 211 6.1 13.9 0.00 0.39 0.39 87 1012.8
20190419182705 62 201 6.1 15.6 0.00 0.39 0.39 87 1012.9
20190419182205 62 195 6.1 15.6 0.00 0.39 0.39 88 1013.0
20190419181704 62 211 6.1 13.9 0.00 0.39 0.39 88 1013.1
20190419181205 61 237 6.1 18.2 0.00 0.39 0.39 87 1013.2
20190419180705 61 184 6.1 18.2 0.00 0.39 0.39 87 1013.1
20190419180205 62 248 6.1 18.2 0.00 0.39 0.39 87 1013.2
20190419175705 61 232 6.1 17.4 0.00 0.39 0.39 87 1013.2
20190419175205 61 146 7.0 17.4 0.00 0.39 0.39 87 1013.3
20190419174709 62 192 7.0 16.5 0.00 0.39 0.39 87 1013.3
20190419174205 62 201 6.1 16.5 0.00 0.39 0.39 86 1013.2
20190419173705 62 262 6.1 15.6 0.00 0.39 0.39 85 1013.3
20190419173205 63 217 6.1 15.6 0.00 0.39 0.39 87 1013.3
20190419172705 62 181 6.1 16.5 0.00 0.39 0.39 88 1013.3
20190419172206 61 212 6.1 16.5 0.00 0.39 0.39 88 1013.2
20190419171705 61 195 7.0 16.5 0.00 0.39 0.39 88 1013.3
20190419171205 60 221 6.1 13.9 0.00 0.39 0.39 88 1013.2
20190419170705 61 247 6.1 13.9 0.00 0.39 0.39 89 1013.2
20190419170205 60 194 5.2 13.9 0.00 0.39 0.39 90 1013.2
20190419165704 60 210 4.3 16.5 0.00 0.39 0.39 90 1013.2
20190419165205 59 227 4.3 16.5 0.00 0.39 0.39 92 1013.2
20190419164709 59 180 5.2 16.5 0.00 0.39 0.39 92 1013.1
20190419164205 58 196 5.2 14.8 0.00 0.39 0.39 93 1013.2
20190419163705 58 201 5.2 14.8 0.00 0.39 0.39 94 1013.1
20190419163206 58 204 6.1 15.6 0.00 0.39 0.39 93 1013.0
20190419162705 58 197 4.3 15.6 0.00 0.39 0.39 94 1013.1
20190419162205 57 181 4.3 15.6 0.00 0.39 0.39 94 1013.0
20190419161705 57 215 4.3 10.4 0.00 0.39 0.39 95 1013.0
20190419161205 57 207 4.3 10.4 0.00 0.39 0.39 95 1013.1
20190419160706 57 174 4.3 11.3 0.00 0.39 0.39 96 1013.1
20190419160205 56 223 4.3 11.3 0.00 0.39 0.39 96 1013.3
20190419155704 56 229 4.3 11.3 0.00 0.39 0.39 96 1013.2
20190419155205 56 221 4.3 10.4 0.00 0.39 0.39 97 1013.2
20190419154705 55 199 3.5 13.9 0.00 0.39 0.39 97 1013.2
20190419154205 55 185 5.2 13.9 0.00 0.39 0.39 98 1013.2
20190419153705 55 192 5.2 16.5 0.00 0.39 0.39 98 1013.3
20190419153205 54 226 4.3 16.5 0.00 0.39 0.39 98 1013.3
20190419152705 54 131 4.3 13.0 0.00 0.39 0.39 98 1013.2
20190419152206 54 225 4.3 13.0 0.00 0.39 0.39 99 1013.3
20190419151705 54 213 4.3 13.9 0.00 0.39 0.39 99 1013.4
20190419151206 54 214 5.2 14.8 0.00 0.39 0.39 99 1013.6
20190419150705 53 225 5.2 14.8 0.00 0.39 0.39 99 1013.5
20190419150205 53 184 5.2 14.8 0.00 0.39 0.39 99 1013.4
20190419145705 53 202 5.2 13.9 0.00 0.39 0.39 100 1013.6
20190419145205 53 205 5.2 13.9 0.00 0.39 0.39 100 1013.6
20190419144705 52 222 5.2 13.9 0.00 0.39 0.39 100 1013.6
20190419144205 52 207 5.2 20.9 0.00 0.39 0.39 100 1013.7
20190419143711 52 246 5.2 20.9 0.00 0.39 0.39 100 1013.5
20190419143205 52 235 5.2 12.2 0.00 0.39 0.39 100 1013.6
20190419142705 52 188 5.2 14.8 0.00 0.39 0.39 100 1013.7
20190419142205 52 166 5.2 14.8 0.00 0.39 0.39 100 1013.8
20190419141705 51 167 5.2 14.8 0.00 0.39 0.39 100 1013.6
20190419141205 51 211 4.3 12.2 0.00 0.39 0.39 100 1013.8
20190419140705 51 175 4.3 13.0 0.00 0.39 0.39 100 1013.9
20190419140206 51 227 5.2 13.9 0.00 0.39 0.39 100 1014.0
20190419135704 51 214 6.1 13.9 0.00 0.39 0.39 100 1014.0
20190419135205 51 215 6.1 16.5 0.00 0.39 0.39 100 1014.1
20190419134705 51 217 6.1 16.5 0.00 0.39 0.39 100 1014.1
20190419134205 51 223 7.0 16.5 0.00 0.39 0.39 100 1014.1
20190419133704 51 205 7.0 19.1 0.00 0.39 0.39 100 1014.1
20190419133205 51 212 7.0 19.1 0.00 0.39 0.39 100 1014.1
20190419132705 51 210 7.0 19.1 0.00 0.39 0.39 100 1014.1
20190419132205 51 189 7.0 15.6 0.00 0.39 0.39 100 1014.2
20190419131705 51 219 7.0 14.8 0.00 0.39 0.39 99 1014.3
20190419131205 51 205 7.0 18.2 0.00 0.39 0.39 100 1014.3
20190419130705 51 219 8.7 19.1 0.00 0.39 0.39 100 1014.1
20190419130205 51 193 9.6 20.9 0.00 0.39 0.39 100 1014.1
20190419125705 51 236 9.6 22.6 0.00 0.39 0.39 100 1014.0
20190419125205 51 231 9.6 22.6 0.00 0.39 0.39 100 1014.1
20190419124705 51 217 8.7 17.4 0.00 0.39 0.39 100 1014.0
20190419124205 51 185 7.0 21.7 0.00 0.39 0.39 100 1014.0
20190419123705 50 217 7.8 21.7 0.00 0.39 0.39 100 1014.1
20190419123205 50 235 8.7 18.2 0.00 0.39 0.39 100 1014.0
20190419122705 50 227 7.8 19.1 0.00 0.39 0.39 99 1013.9
20190419122205 50 201 7.8 25.2 0.00 0.39 0.39 99 1014.1
20190419121705 50 201 7.8 25.2 0.00 0.39 0.39 99 1014.0
20190419121205 50 139 7.8 25.2 0.00 0.39 0.39 100 1014.1
20190419120705 50 226 7.8 20.0 0.00 0.39 0.39 100 1014.2
20190419120205 50 149 8.7 20.9 0.00 0.40 0.39 100 1014.2
20190419115704 49 196 8.7 20.9 0.00 0.40 0.39 100 1014.2
20190419115205 49 279 8.7 20.9 0.00 0.40 0.39 100 1014.1
20190419114705 49 207 7.8 19.1 0.00 0.40 0.39 100 1014.2
20190419114205 49 257 7.8 19.1 0.00 0.40 0.39 100 1014.4
20190419113705 49 179 7.8 21.7 0.00 0.40 0.39 100 1014.3
20190419113205 49 212 7.8 21.7 0.00 0.40 0.39 100 1014.3
20190419112705 49 222 9.6 21.7 0.00 0.40 0.39 100 1014.5
20190419112205 49 190 9.6 21.7 0.00 0.40 0.39 100 1014.4
20190419111705 49 219 7.8 21.7 0.00 0.40 0.39 100 1014.5
20190419111205 48 216 7.0 19.1 0.00 0.40 0.39 100 1014.5
20190419110706 48 212 7.0 19.1 0.00 0.40 0.39 100 1014.5
20190419110206 48 209 7.8 19.1 0.00 0.40 0.39 100 1014.5
20190419105705 48 202 7.8 19.1 0.01 0.40 0.39 100 1014.5
20190419105206 48 193 7.8 19.1 0.01 0.40 0.39 100 1014.4
20190419104705 47 229 7.8 19.1 0.01 0.40 0.39 100 1014.6
20190419104205 47 168 7.0 13.0 0.02 0.40 0.39 100 1014.6
20190419103705 47 191 6.1 13.0 0.02 0.40 0.39 100 1014.8
20190419103206 46 215 5.2 19.1 0.02 0.40 0.39 100 1015.0
20190419102705 46 188 5.2 19.1 0.03 0.40 0.39 100 1015.0
20190419102206 46 204 5.2 18.2 0.04 0.40 0.39 100 1014.9
20190419101705 45 193 6.1 18.2 0.05 0.40 0.39 100 1014.9
20190419101208 45 215 5.2 20.0 0.05 0.40 0.39 100 1014.9
20190419100705 45 196 5.2 20.0 0.06 0.40 0.39 100 1014.9
20190419100206 45 184 6.1 20.0 0.06 0.40 0.39 100 1014.9
20190419095705 44 184 6.1 20.0 0.05 0.39 0.39 100 1014.9
20190419095205 44 184 5.2 15.6 0.06 0.39 0.39 100 1015.0
20190419094705 44 171 5.2 15.6 0.07 0.39 0.39 100 1015.0
20190419094205 44 205 4.3 14.8 0.06 0.39 0.38 100 1015.0
20190419093705 43 213 3.5 14.8 0.06 0.37 0.36 100 1015.1
20190419093205 43 153 4.3 14.8 0.06 0.36 0.36 100 1015.2
20190419092706 43 217 5.2 14.8 0.06 0.36 0.35 100 1015.1
20190419092206 43 145 6.1 14.8 0.06 0.36 0.35 100 1015.2
20190419091705 43 222 6.1 14.8 0.07 0.35 0.35 100 1015.3
20190419091205 42 126 4.3 14.8 0.07 0.35 0.35 100 1015.5
20190419090705 42 102 3.5 14.8 0.08 0.35 0.34 100 1015.4
20190419090206 42 192 4.3 14.8 0.09 0.35 0.34 100 1015.8
20190419085705 42 121 4.3 14.8 0.09 0.34 0.33 100 1015.7
20190419085205 41 161 3.5 10.4 0.12 0.34 0.31 100 1015.7
20190419084705 41 153 2.6 10.4 0.11 0.32 0.31 100 1016.0
20190419084205 40 153 2.6 10.4 0.12 0.32 0.31 100 1015.9
20190419083705 40 151 2.6 10.4 0.13 0.31 0.31 100 1016.2
20190419083205 40 146 1.7 7.8 0.13 0.31 0.30 100 1016.5
20190419082705 40 169 1.7 7.8 0.13 0.30 0.29 100 1016.7
20190419082206 40 169 1.7 6.1 0.13 0.29 0.28 100 1017.0
20190419081705 40 160 2.6 6.1 0.14 0.28 0.28 100 1017.1
20190419081205 40 173 1.7 8.7 0.15 0.28 0.27 100 1017.2
20190419080706 40 166 1.7 8.7 0.15 0.27 0.25 100 1017.3
20190419080206 40 161 2.6 10.4 0.14 0.26 0.25 100 1017.3
20190419075705 40 217 2.6 10.4 0.11 0.23 0.22 100 1017.5
20190419075205 40 221 2.6 10.4 0.11 0.22 0.21 100 1017.7
20190419074705 40 183 3.5 10.4 0.10 0.21 0.20 100 1017.5
20190419074205 40 115 3.5 14.8 0.09 0.20 0.19 100 1017.4
20190419073705 40 159 3.5 16.5 0.08 0.19 0.17 100 1017.5
20190419073205 40 145 4.3 16.5 0.07 0.17 0.17 100 1017.7
20190419072705 40 128 4.3 16.5 0.07 0.17 0.16 100 1017.5
20190419072205 40 142 4.3 15.6 0.06 0.15 0.13 100 1017.8